When you browse on this site, cookies collect data to enhance your experience and personalize the content and advertising you see.
Visit our Privacy Policy to learn more. By continuing to use the site, you agree to this use of cookies and data.

Meteo pe oră la Dziekanowice

Astăzi, 19 Septembrie, Sâmbătă

Timp Temperatura Precipitaţii Vânt Presiune Umiditate
00:00 +11°C° 0 mm 1 m/s 760 mmHg 58%
01:00 +11°C° 0 mm 1 m/s 760 mmHg 60%
02:00 +10°C° 0 mm 0 m/s 759 mmHg 61%
03:00 +9°C° 0 mm 0 m/s 759 mmHg 62%
04:00 +9°C° 0 mm 0 m/s 759 mmHg 63%
05:00 +10°C° 0 mm 0 m/s 759 mmHg 63%
06:00 +10°C° 0 mm 0 m/s 759 mmHg 62%
07:00 +11°C° 0 mm 0 m/s 759 mmHg 62%
08:00 +14°C° 0 mm 1 m/s 759 mmHg 57%
09:00 +15°C° 0 mm 1 m/s 759 mmHg 51%
10:00 +18°C° 0 mm 1 m/s 759 mmHg 46%
11:00 +19°C° 0 mm 1 m/s 758 mmHg 43%
12:00 +20°C° 0 mm 1 m/s 758 mmHg 40%
13:00 +19°C° 0 mm 0 m/s 758 mmHg 37%
14:00 +20°C° 0 mm 1 m/s 758 mmHg 38%
15:00 +20°C° 0 mm 1 m/s 757 mmHg 39%
16:00 +20°C° 0 mm 1 m/s 757 mmHg 40%
17:00 +18°C° 0 mm 2 m/s 757 mmHg 43%
18:00 +16°C° 0 mm 2 m/s 756 mmHg 47%
19:00 +15°C° 0 mm 2 m/s 756 mmHg 50%
20:00 +14°C° 0 mm 2 m/s 756 mmHg 52%
21:00 +14°C° 0 mm 2 m/s 757 mmHg 53%
22:00 +13°C° 0 mm 2 m/s 757 mmHg 55%
23:00 +13°C° 0 mm 2 m/s 757 mmHg 56%

Mâine, 20 Septembrie, Duminică

Timp Temperatura Precipitaţii Vânt Presiune Umiditate
00:00 +13°C° 0 mm 2 m/s 757 mmHg 57%
01:00 +12°C° 0 mm 2 m/s 756 mmHg 58%
02:00 +12°C° 0 mm 2 m/s 756 mmHg 58%
03:00 +12°C° 0 mm 2 m/s 756 mmHg 58%
04:00 +11°C° 0 mm 3 m/s 756 mmHg 59%
05:00 +11°C° 0 mm 3 m/s 756 mmHg 59%
06:00 +11°C° 0 mm 3 m/s 756 mmHg 59%
07:00 +11°C° 0 mm 3 m/s 756 mmHg 60%
08:00 +13°C° 0 mm 3 m/s 756 mmHg 56%
09:00 +16°C° 0 mm 3 m/s 756 mmHg 52%
10:00 +17°C° 0 mm 3 m/s 756 mmHg 48%
11:00 +18°C° 0 mm 4 m/s 756 mmHg 45%
12:00 +19°C° 0 mm 4 m/s 755 mmHg 42%
13:00 +20°C° 0 mm 4 m/s 755 mmHg 40%
14:00 +20°C° 0 mm 4 m/s 755 mmHg 41%
15:00 +20°C° 0 mm 3 m/s 754 mmHg 42%
16:00 +20°C° 0 mm 3 m/s 754 mmHg 44%
17:00 +18°C° 0 mm 3 m/s 754 mmHg 48%
18:00 +16°C° 0 mm 3 m/s 754 mmHg 52%
19:00 +14°C° 0 mm 3 m/s 754 mmHg 56%
20:00 +13°C° 0 mm 3 m/s 754 mmHg 57%
21:00 +13°C° 0 mm 3 m/s 754 mmHg 58%
22:00 +12°C° 0 mm 3 m/s 755 mmHg 59%
23:00 +12°C° 0 mm 3 m/s 754 mmHg 61%

Poimâine, 21 Septembrie, Luni

Timp Temperatura Precipitaţii Vânt Presiune Umiditate
00:00 +13°C° 0 mm 2 m/s 754 mmHg 62%
01:00 +12°C° 0 mm 2 m/s 754 mmHg 64%
02:00 +12°C° 0 mm 2 m/s 754 mmHg 66%
03:00 +12°C° 0 mm 2 m/s 754 mmHg 69%
04:00 +10°C° 0 mm 2 m/s 754 mmHg 71%
05:00 +12°C° 0 mm 2 m/s 754 mmHg 72%
06:00 +12°C° 0 mm 2 m/s 754 mmHg 72%
07:00 +13°C° 0 mm 2 m/s 753 mmHg 73%
08:00 +15°C° 0 mm 2 m/s 753 mmHg 68%
09:00 +17°C° 0 mm 2 m/s 753 mmHg 62%
10:00 +19°C° 0 mm 2 m/s 753 mmHg 57%
11:00 +20°C° 0 mm 2 m/s 753 mmHg 53%
12:00 +21°C° 0 mm 2 m/s 753 mmHg 48%
13:00 +24°C° 0 mm 2 m/s 753 mmHg 44%
14:00 +24°C° 0 mm 2 m/s 752 mmHg 44%
15:00 +24°C° 0 mm 1 m/s 752 mmHg 44%
16:00 +24°C° 0 mm 1 m/s 752 mmHg 44%
17:00 +23°C° 0 mm 1 m/s 752 mmHg 49%
18:00 +21°C° 0 mm 1 m/s 752 mmHg 53%
19:00 +19°C° 0 mm 1 m/s 751 mmHg 58%
20:00 +18°C° 0 mm 2 m/s 751 mmHg 59%
21:00 +17°C° 0 mm 2 m/s 751 mmHg 61%
22:00 +17°C° 0 mm 2 m/s 751 mmHg 62%
23:00 +17°C° 0 mm 2 m/s 751 mmHg 63%

22 Septembrie, Marţi

Timp Temperatura Precipitaţii Vânt Presiune Umiditate
00:00 +16°C° 0 mm 2 m/s 751 mmHg 65%
01:00 +16°C° 0 mm 2 m/s 750 mmHg 66%
02:00 +16°C° 0 mm 2 m/s 750 mmHg 67%
03:00 +15°C° 0 mm 2 m/s 750 mmHg 67%
04:00 +15°C° 0 mm 2 m/s 750 mmHg 68%
05:00 +15°C° 0 mm 2 m/s 750 mmHg 67%
06:00 +16°C° 0 mm 2 m/s 750 mmHg 66%
07:00 +16°C° 0 mm 2 m/s 750 mmHg 65%
08:00 +18°C° 0 mm 3 m/s 750 mmHg 58%
09:00 +20°C° 0 mm 4 m/s 749 mmHg 51%
10:00 +22°C° 0 mm 4 m/s 749 mmHg 45%
11:00 +23°C° 0 mm 5 m/s 749 mmHg 42%
12:00 +25°C° 0 mm 5 m/s 748 mmHg 40%
13:00 +27°C° 0 mm 6 m/s 748 mmHg 38%
14:00 +26°C° 0 mm 5 m/s 748 mmHg 40%
15:00 +26°C° 0 mm 4 m/s 747 mmHg 43%
16:00 +26°C° 0 mm 3 m/s 747 mmHg 45%
17:00 +24°C° 0 mm 3 m/s 747 mmHg 50%
18:00 +22°C° 0 mm 3 m/s 746 mmHg 55%
19:00 +20°C° 0 mm 3 m/s 746 mmHg 59%
20:00 +19°C° 0 mm 3 m/s 746 mmHg 61%
21:00 +19°C° 0 mm 3 m/s 746 mmHg 63%
22:00 +18°C° 0 mm 3 m/s 746 mmHg 64%
23:00 +18°C° 0 mm 3 m/s 745 mmHg 66%

23 Septembrie, Miercuri

Timp Temperatura Precipitaţii Vânt Presiune Umiditate
00:00 +17°C° 0 mm 3 m/s 745 mmHg 67%
01:00 +17°C° 0 mm 2 m/s 745 mmHg 68%
02:00 +17°C° 0 mm 2 m/s 745 mmHg 67%
03:00 +16°C° 0 mm 2 m/s 744 mmHg 67%
04:00 +16°C° 0 mm 2 m/s 744 mmHg 66%
05:00 +16°C° 0 mm 2 m/s 744 mmHg 66%
06:00 +17°C° 0 mm 2 m/s 744 mmHg 65%
07:00 +17°C° 0 mm 2 m/s 744 mmHg 65%
08:00 +18°C° 0 mm 2 m/s 744 mmHg 62%
09:00 +20°C° 0 mm 2 m/s 744 mmHg 59%
10:00 +21°C° 0 mm 2 m/s 743 mmHg 57%
11:00 +21°C° 0 mm 3 m/s 743 mmHg 58%
12:00 +22°C° 0 mm 3 m/s 743 mmHg 59%
13:00 +22°C° 0 mm 3 m/s 743 mmHg 61%
14:00 +24°C° 0 mm 3 m/s 743 mmHg 59%
15:00 +24°C° 0 mm 3 m/s 742 mmHg 58%
16:00 +24°C° 0 mm 3 m/s 742 mmHg 56%
17:00 +22°C° 0 mm 3 m/s 742 mmHg 61%
18:00 +20°C° 0 mm 3 m/s 742 mmHg 66%
19:00 +19°C° 0 mm 3 m/s 742 mmHg 71%
20:00 +18°C° 0 mm 3 m/s 742 mmHg 70%
21:00 +18°C° 0 mm 3 m/s 742 mmHg 70%
22:00 +18°C° 0 mm 3 m/s 742 mmHg 69%
23:00 +18°C° 0 mm 3 m/s 742 mmHg 69%

24 Septembrie, Joi

Timp Temperatura Precipitaţii Vânt Presiune Umiditate
00:00 +17°C° 0 mm 3 m/s 743 mmHg 68%
01:00 +17°C° 0 mm 3 m/s 743 mmHg 67%
02:00 +17°C° 0 mm 3 m/s 743 mmHg 71%
03:00 +16°C° 0 mm 3 m/s 743 mmHg 75%
04:00 +16°C° 0 mm 3 m/s 743 mmHg 79%
05:00 +16°C° 0 mm 3 m/s 743 mmHg 82%
06:00 +16°C° 0 mm 2 m/s 744 mmHg 84%
07:00 +16°C° 0 mm 2 m/s 744 mmHg 86%
08:00 +17°C° 0 mm 2 m/s 744 mmHg 81%
09:00 +19°C° 0 mm 2 m/s 744 mmHg 76%
10:00 +20°C° 0 mm 2 m/s 745 mmHg 71%
11:00 +21°C° 0 mm 2 m/s 744 mmHg 66%
12:00 +23°C° 0 mm 2 m/s 744 mmHg 61%
13:00 +24°C° 0 mm 2 m/s 744 mmHg 56%
14:00 +24°C° 0 mm 2 m/s 744 mmHg 56%
15:00 +24°C° 0 mm 3 m/s 744 mmHg 55%
16:00 +24°C° 0 mm 3 m/s 743 mmHg 54%
17:00 +22°C° 0 mm 3 m/s 743 mmHg 60%
18:00 +20°C° 0 mm 3 m/s 743 mmHg 66%
19:00 +19°C° 0 mm 3 m/s 743 mmHg 71%
20:00 +18°C° 0 mm 3 m/s 743 mmHg 74%
21:00 +18°C° 0 mm 3 m/s 743 mmHg 76%
22:00 +17°C° 0 mm 3 m/s 743 mmHg 78%
23:00 +17°C° 0 mm 3 m/s 742 mmHg 82%
Arată mai mult